• In Hungary
  • List of Countries
  • For 7 days
  • Water Temperature
  • Satellite Maps
  • Weather Map
  • News
  • Weather Widgets
  • user-avatar
    Login

    Hourly Weather Ogbomosho

    Today, 24 September, Monday

    Time Temperature Precipitation Wind Pressure Humidity
    00:00 +22°C° 0 mm 0 mps 731 mmHg 91%
    01:00 +22°C° 0 mm 0 mps 731 mmHg 91%
    02:00 +24°C° 0 mm 1 mps 730 mmHg 92%
    03:00 +24°C° 0 mm 1 mps 730 mmHg 93%
    04:00 +24°C° 0 mm 1 mps 730 mmHg 94%
    05:00 +24°C° 0 mm 1 mps 731 mmHg 95%
    06:00 +24°C° 0 mm 1 mps 731 mmHg 96%
    07:00 +25°C° 0 mm 1 mps 731 mmHg 90%
    08:00 +26°C° 0 mm 1 mps 732 mmHg 85%
    09:00 +28°C° 0 mm 1 mps 732 mmHg 79%
    10:00 +29°C° 0 mm 1 mps 732 mmHg 73%
    11:00 +31°C° 0 mm 1 mps 731 mmHg 66%
    12:00 +32°C° 0 mm 1 mps 731 mmHg 59%
    13:00 +32°C° 0.2 mm 1 mps 730 mmHg 60%
    14:00 +32°C° 0.2 mm 1 mps 730 mmHg 61%
    15:00 +32°C° 0.2 mm 1 mps 729 mmHg 62%
    16:00 +31°C° 0.5 mm 1 mps 729 mmHg 69%
    17:00 +29°C° 0.5 mm 1 mps 729 mmHg 76%
    18:00 +27°C° 0.5 mm 1 mps 729 mmHg 83%
    19:00 +27°C° 0 mm 1 mps 730 mmHg 85%
    20:00 +26°C° 0 mm 1 mps 730 mmHg 87%
    21:00 +26°C° 0 mm 1 mps 731 mmHg 89%
    22:00 +26°C° 0.1 mm 1 mps 731 mmHg 91%
    23:00 +25°C° 0.1 mm 2 mps 731 mmHg 92%

    Tomorrow, 25 September, Tuesday

    Time Temperature Precipitation Wind Pressure Humidity
    00:00 +25°C° 0.1 mm 2 mps 731 mmHg 94%
    01:00 +25°C° 1.3 mm 2 mps 731 mmHg 95%
    02:00 +25°C° 1.3 mm 1 mps 730 mmHg 96%
    03:00 +24°C° 1.3 mm 1 mps 730 mmHg 97%
    04:00 +24°C° 0.2 mm 2 mps 730 mmHg 97%
    05:00 +24°C° 0.2 mm 2 mps 730 mmHg 97%
    06:00 +24°C° 0.2 mm 2 mps 730 mmHg 97%
    07:00 +25°C° 0 mm 2 mps 731 mmHg 93%
    08:00 +26°C° 0 mm 2 mps 731 mmHg 89%
    09:00 +28°C° 0 mm 2 mps 732 mmHg 85%
    10:00 +29°C° 0.1 mm 2 mps 732 mmHg 78%
    11:00 +30°C° 0.1 mm 2 mps 731 mmHg 71%
    12:00 +32°C° 0.1 mm 2 mps 731 mmHg 64%
    13:00 +32°C° 0 mm 2 mps 730 mmHg 65%
    14:00 +31°C° 0 mm 2 mps 729 mmHg 66%
    15:00 +31°C° 0 mm 2 mps 729 mmHg 67%
    16:00 +30°C° 0 mm 2 mps 729 mmHg 71%
    17:00 +29°C° 0 mm 1 mps 729 mmHg 76%
    18:00 +28°C° 0 mm 1 mps 729 mmHg 81%
    19:00 +27°C° 0.1 mm 1 mps 730 mmHg 82%
    20:00 +27°C° 0.1 mm 1 mps 731 mmHg 83%
    21:00 +27°C° 0.1 mm 1 mps 731 mmHg 85%
    22:00 +26°C° 0.2 mm 1 mps 731 mmHg 87%
    23:00 +26°C° 0.2 mm 1 mps 731 mmHg 89%

    Day after tomorrow, 26 September, Wednesday

    Time Temperature Precipitation Wind Pressure Humidity
    00:00 +25°C° 0.2 mm 2 mps 731 mmHg 91%
    01:00 +25°C° 0 mm 2 mps 730 mmHg 93%
    02:00 +25°C° 0 mm 2 mps 730 mmHg 94%
    03:00 +24°C° 0 mm 2 mps 730 mmHg 96%
    04:00 +24°C° 0 mm 2 mps 730 mmHg 96%
    05:00 +24°C° 0 mm 2 mps 730 mmHg 96%
    06:00 +24°C° 0 mm 2 mps 730 mmHg 95%
    07:00 +26°C° 0 mm 2 mps 731 mmHg 89%
    08:00 +27°C° 0 mm 2 mps 732 mmHg 84%
    09:00 +28°C° 0 mm 2 mps 732 mmHg 78%
    10:00 +30°C° 0 mm 2 mps 732 mmHg 71%
    11:00 +31°C° 0 mm 2 mps 731 mmHg 65%
    12:00 +34°C° 0 mm 2 mps 730 mmHg 59%
    13:00 +32°C° 0.7 mm 2 mps 730 mmHg 62%
    14:00 +32°C° 0.7 mm 2 mps 729 mmHg 65%
    15:00 +32°C° 0.7 mm 2 mps 729 mmHg 68%
    16:00 +30°C° 0.5 mm 2 mps 729 mmHg 74%
    17:00 +29°C° 0.5 mm 2 mps 729 mmHg 80%
    18:00 +27°C° 0.5 mm 2 mps 729 mmHg 86%
    19:00 +27°C° 0 mm 2 mps 730 mmHg 88%
    20:00 +26°C° 0 mm 2 mps 730 mmHg 89%
    21:00 +25°C° 0 mm 2 mps 731 mmHg 90%
    22:00 +25°C° 0 mm 2 mps 731 mmHg 91%
    23:00 +25°C° 0 mm 2 mps 731 mmHg 92%

    27 September, Thursday

    Time Temperature Precipitation Wind Pressure Humidity
    00:00 +25°C° 0 mm 2 mps 731 mmHg 94%
    01:00 +24°C° 0 mm 2 mps 730 mmHg 94%
    02:00 +24°C° 0 mm 2 mps 730 mmHg 95%
    03:00 +24°C° 0 mm 2 mps 730 mmHg 96%
    04:00 +24°C° 0.1 mm 1 mps 731 mmHg 95%
    05:00 +24°C° 0.1 mm 1 mps 731 mmHg 95%
    06:00 +24°C° 0.1 mm 1 mps 732 mmHg 95%
    07:00 +25°C° 0 mm 1 mps 732 mmHg 91%
    08:00 +26°C° 0 mm 2 mps 732 mmHg 87%
    09:00 +27°C° 0 mm 3 mps 732 mmHg 83%
    10:00 +28°C° 0 mm 3 mps 731 mmHg 78%
    11:00 +30°C° 0 mm 3 mps 731 mmHg 73%
    12:00 +31°C° 0 mm 3 mps 730 mmHg 67%
    13:00 +31°C° 0.1 mm 3 mps 729 mmHg 67%
    14:00 +31°C° 0.1 mm 3 mps 729 mmHg 67%
    15:00 +31°C° 0.1 mm 2 mps 728 mmHg 68%
    16:00 +30°C° 0.6 mm 2 mps 729 mmHg 73%
    17:00 +29°C° 0.6 mm 2 mps 729 mmHg 79%
    18:00 +27°C° 0.6 mm 2 mps 729 mmHg 85%
    19:00 +27°C° 0.1 mm 2 mps 730 mmHg 87%
    20:00 +26°C° 0.1 mm 1 mps 730 mmHg 89%
    21:00 +26°C° 0.1 mm 1 mps 731 mmHg 91%
    22:00 +26°C° 0.5 mm 1 mps 731 mmHg 92%
    23:00 +25°C° 0.5 mm 2 mps 730 mmHg 94%

    28 September, Friday

    Time Temperature Precipitation Wind Pressure Humidity
    00:00 +25°C° 0.5 mm 2 mps 730 mmHg 95%
    01:00 +24°C° 0.5 mm 2 mps 730 mmHg 96%
    02:00 +24°C° 0.5 mm 2 mps 730 mmHg 96%
    03:00 +24°C° 0.5 mm 2 mps 729 mmHg 97%
    04:00 +24°C° 0 mm 2 mps 730 mmHg 97%
    05:00 +24°C° 0 mm 2 mps 730 mmHg 97%
    06:00 +24°C° 0 mm 2 mps 730 mmHg 97%
    07:00 +25°C° 0 mm 2 mps 731 mmHg 92%
    08:00 +26°C° 0 mm 2 mps 731 mmHg 88%
    09:00 +28°C° 0 mm 2 mps 732 mmHg 83%
    10:00 +29°C° 0 mm 2 mps 731 mmHg 78%
    11:00 +30°C° 0 mm 2 mps 730 mmHg 73%
    12:00 +31°C° 0 mm 2 mps 730 mmHg 67%
    13:00 +31°C° 1.7 mm 2 mps 729 mmHg 69%
    14:00 +31°C° 1.7 mm 2 mps 729 mmHg 71%
    15:00 +31°C° 1.7 mm 1 mps 728 mmHg 73%
    16:00 +29°C° 4.4 mm 1 mps 729 mmHg 79%
    17:00 +28°C° 4.4 mm 1 mps 729 mmHg 85%
    18:00 +26°C° 4.4 mm 1 mps 730 mmHg 91%
    19:00 +26°C° 1 mm 1 mps 730 mmHg 92%
    20:00 +25°C° 1 mm 2 mps 730 mmHg 92%
    21:00 +25°C° 1 mm 3 mps 731 mmHg 93%
    22:00 +25°C° 0 mm 2 mps 730 mmHg 94%
    23:00 +25°C° 0 mm 2 mps 730 mmHg 94%

    29 September, Saturday

    Time Temperature Precipitation Wind Pressure Humidity
    00:00 +24°C° 0 mm 1 mps 729 mmHg 95%
    01:00 +24°C° 0 mm 1 mps 729 mmHg 96%
    02:00 +24°C° 0 mm 1 mps 729 mmHg 96%
    03:00 +24°C° 0 mm 1 mps 729 mmHg 97%
    04:00 +24°C° 0 mm 1 mps 730 mmHg 97%
    05:00 +24°C° 0 mm 1 mps 730 mmHg 97%
    06:00 +24°C° 0 mm 1 mps 731 mmHg 97%
    07:00 +25°C° 0 mm 1 mps 731 mmHg 92%
    08:00 +27°C° 0 mm 2 mps 731 mmHg 88%
    09:00 +28°C° 0 mm 2 mps 732 mmHg 83%
    10:00 +29°C° 0.6 mm 2 mps 731 mmHg 80%
    11:00 +30°C° 0.6 mm 2 mps 730 mmHg 77%
    12:00 +30°C° 0.6 mm 2 mps 729 mmHg 74%
    13:00 +30°C° 1 mm 1 mps 729 mmHg 75%
    14:00 +30°C° 1 mm 1 mps 729 mmHg 76%
    15:00 +30°C° 1 mm 1 mps 728 mmHg 77%
    16:00 +29°C° 0.2 mm 1 mps 728 mmHg 80%
    17:00 +28°C° 0.2 mm 1 mps 729 mmHg 83%
    18:00 +27°C° 0.2 mm 1 mps 729 mmHg 87%
    19:00 +27°C° 0 mm 1 mps 730 mmHg 88%
    20:00 +26°C° 0 mm 1 mps 730 mmHg 89%
    21:00 +26°C° 0 mm 1 mps 730 mmHg 90%
    22:00 +26°C° 0 mm 1 mps 730 mmHg 92%
    23:00 +25°C° 0 mm 1 mps 730 mmHg 93%
    Show more